PIX453 PAEN-CKEB

Flight info

Callsign PIX453
Flight time N/A
Altitude 17000
Route KASSI V435 HOM/N0282F160 V439 JEKEX
Aircraft PC12/L-SDFGRWY/S

Departure

Time 2026-04-22 15:28
Airport Kenai Municipal Airport (PAEN)

Arrival

Time N/A
Airport CKEB
Time Latitude Longitude Altitude Speed Heading
2026-04-22 15:17 60.56407 -151.24895 95 ft 0 kts 296°
2026-04-22 15:24 60.56408 -151.24898 95 ft 1 kts 296°
2026-04-22 15:24 60.56409 -151.24904 97 ft 0 kts 295°
2026-04-22 15:24 60.56413 -151.24919 96 ft 0 kts 295°
2026-04-22 15:26 60.56407 -151.25027 96 ft 16 kts 253°
2026-04-22 15:26 60.56325 -151.25322 94 ft 32 kts 228°
2026-04-22 15:26 60.56320 -151.25775 94 ft 40 kts 337°
2026-04-22 15:27 60.56453 -151.25673 97 ft 31 kts 32°
2026-04-22 15:27 60.56854 -151.25180 96 ft 102 kts 31°
2026-04-22 15:27 60.57601 -151.24262 253 ft 143 kts 31°
2026-04-22 15:27 60.58586 -151.23144 654 ft 172 kts 28°
2026-04-22 15:28 60.59464 -151.21787 1798 ft 152 kts 63°
2026-04-22 15:28 60.59628 -151.19586 2458 ft 165 kts 103°
2026-04-22 15:28 60.59106 -151.17601 3350 ft 157 kts 140°
2026-04-22 15:28 60.58169 -151.16683 4227 ft 151 kts 173°
2026-04-22 15:29 60.57135 -151.16927 5112 ft 150 kts 193°
2026-04-22 15:29 60.56111 -151.17398 5956 ft 152 kts 192°
2026-04-22 15:29 60.55071 -151.17853 6775 ft 154 kts 193°
2026-04-22 15:30 60.53582 -151.18498 7880 ft 157 kts 193°
2026-04-22 15:30 60.53163 -151.18678 8183 ft 157 kts 194°
2026-04-22 15:30 60.52085 -151.19144 8969 ft 159 kts 194°
2026-04-22 15:30 60.50990 -151.19615 9750 ft 162 kts 195°
2026-04-22 15:31 60.49883 -151.20091 10499 ft 164 kts 195°
2026-04-22 15:31 60.48755 -151.20577 11200 ft 168 kts 196°
2026-04-22 15:31 60.47602 -151.21071 11943 ft 171 kts 197°
2026-04-22 15:31 60.46425 -151.21577 12706 ft 174 kts 198°
2026-04-22 15:32 60.45225 -151.22091 13499 ft 178 kts 198°
2026-04-22 15:32 60.43997 -151.22617 14256 ft 182 kts 199°
2026-04-22 15:32 60.42767 -151.23143 14973 ft 184 kts 199°
2026-04-22 15:32 60.41504 -151.23683 15715 ft 187 kts 199°
2026-04-22 15:33 60.40221 -151.24231 16462 ft 190 kts 199°
2026-04-22 15:33 60.38889 -151.24805 17036 ft 203 kts 199°
2026-04-22 15:33 60.37406 -151.25454 17119 ft 233 kts 198°
2026-04-22 15:33 60.35739 -151.26166 17117 ft 254 kts 197°
2026-04-22 15:34 60.33964 -151.26910 17115 ft 265 kts 197°
2026-04-22 15:34 60.32134 -151.27679 17117 ft 270 kts 197°
2026-04-22 15:34 60.30285 -151.28462 17108 ft 273 kts 197°
2026-04-22 15:34 60.28423 -151.29237 17113 ft 274 kts 195°
2026-04-22 15:35 60.26527 -151.29799 17110 ft 276 kts 193°
2026-04-22 15:35 60.24619 -151.30338 17112 ft 276 kts 193°
2026-04-22 15:35 60.22713 -151.30893 17109 ft 276 kts 193°
2026-04-22 15:35 60.20812 -151.31451 17116 ft 276 kts 193°
2026-04-22 15:36 60.18907 -151.32006 17117 ft 276 kts 193°
2026-04-22 15:36 60.17030 -151.32550 17116 ft 277 kts 193°
2026-04-22 15:36 60.15124 -151.33102 17117 ft 277 kts 193°
2026-04-22 15:36 60.13219 -151.33654 17115 ft 277 kts 193°
2026-04-22 15:37 60.11312 -151.34205 17111 ft 277 kts 193°
2026-04-22 15:37 60.09401 -151.34757 17111 ft 277 kts 193°
2026-04-22 15:37 60.07494 -151.35308 17107 ft 277 kts 193°
2026-04-22 15:37 60.05583 -151.35858 17111 ft 277 kts 193°
2026-04-22 15:38 60.03675 -151.36408 17110 ft 277 kts 193°
2026-04-22 15:38 59.99860 -151.37504 17097 ft 277 kts 193°
2026-04-22 15:38 59.97957 -151.38049 17097 ft 276 kts 193°
2026-04-22 15:39 59.96075 -151.38589 17099 ft 276 kts 193°
2026-04-22 15:39 59.94167 -151.39135 17103 ft 276 kts 193°
2026-04-22 15:39 59.92270 -151.39678 17102 ft 276 kts 193°
2026-04-22 15:39 59.90368 -151.40220 17110 ft 276 kts 193°
2026-04-22 15:40 59.88469 -151.40762 17104 ft 276 kts 193°
2026-04-22 15:40 59.86566 -151.41296 17097 ft 276 kts 193°
2026-04-22 15:40 59.84660 -151.41829 17095 ft 276 kts 193°
2026-04-22 15:40 59.82761 -151.42360 17093 ft 276 kts 193°
2026-04-22 15:41 59.80859 -151.42893 17096 ft 276 kts 193°
2026-04-22 15:41 59.78981 -151.43419 17100 ft 276 kts 193°
2026-04-22 15:41 59.77080 -151.43952 17099 ft 276 kts 193°
2026-04-22 15:41 59.75175 -151.44480 17106 ft 276 kts 193°
2026-04-22 15:42 59.73266 -151.45012 17107 ft 276 kts 193°
2026-04-22 15:42 59.71390 -151.45700 17104 ft 272 kts 200°
2026-04-22 15:42 59.69644 -151.47082 17102 ft 268 kts 210°
2026-04-22 15:42 59.68018 -151.48877 17102 ft 267 kts 212°
2026-04-22 15:43 59.66388 -151.50658 17105 ft 268 kts 212°
2026-04-22 15:43 59.64757 -151.52429 17107 ft 268 kts 212°
2026-04-22 15:43 59.63147 -151.54187 17108 ft 268 kts 212°
2026-04-22 15:43 59.61515 -151.55969 17108 ft 267 kts 212°
2026-04-22 15:44 59.59886 -151.57743 17102 ft 267 kts 212°
2026-04-22 15:44 59.58252 -151.59522 17108 ft 267 kts 212°
2026-04-22 15:44 59.56621 -151.61294 17107 ft 267 kts 212°
2026-04-22 15:44 59.54989 -151.63066 17075 ft 267 kts 212°
2026-04-22 15:45 59.53357 -151.64836 17080 ft 267 kts 212°
2026-04-22 15:45 59.51727 -151.66602 17080 ft 267 kts 212°
2026-04-22 15:45 59.50095 -151.68368 17077 ft 267 kts 212°
2026-04-22 15:45 59.48482 -151.70111 17076 ft 268 kts 212°
2026-04-22 15:46 59.46848 -151.71876 17078 ft 268 kts 212°
2026-04-22 15:46 59.45215 -151.73637 17074 ft 268 kts 212°
2026-04-22 15:46 59.43584 -151.75395 17073 ft 267 kts 211°
2026-04-22 15:46 59.41956 -151.77146 17082 ft 266 kts 211°
2026-04-22 15:47 59.40362 -151.78990 17077 ft 265 kts 217°
2026-04-22 15:47 59.38982 -151.81361 17073 ft 264 kts 227°
2026-04-22 15:47 59.37871 -151.84206 17034 ft 251 kts 241°
2026-04-22 15:47 59.37348 -151.86511 11376 ft 223 kts 250°
2026-04-22 15:48 59.36704 -151.90901 10359 ft 288 kts 252°
2026-04-22 15:48 59.36539 -151.92813 8671 ft 207 kts 52°
2026-04-22 15:48 59.38209 -151.89688 6380 ft 340 kts 355°
2026-04-22 15:48 59.38356 -151.92284 5551 ft 253 kts 184°
2026-04-22 15:49 59.38129 -151.90086 5079 ft 254 kts 342°
2026-04-22 15:49 59.37662 -151.91452 3335 ft 167 kts 182°
2026-04-22 15:49 59.36243 -151.91470 1105 ft 198 kts 198°
2026-04-22 15:49 59.35182 -151.92590 174 ft 130 kts 215°
2026-04-22 15:50 59.35036 -151.94005 664 ft 105 kts 251°
2026-04-22 15:50 59.34646 -151.95216 782 ft 90 kts 185°
2026-04-22 15:50 59.34269 -151.94641 1020 ft 104 kts 106°
2026-04-22 15:50 59.34654 -151.93348 669 ft 119 kts 44°
2026-04-22 15:51 59.35333 -151.92389 120 ft 113 kts 22°
2026-04-22 15:51 59.36125 -151.92992 383 ft 138 kts 319°
2026-04-22 15:51 59.36783 -151.92777 606 ft 119 kts 88°
2026-04-22 15:51 59.36532 -151.91390 905 ft 113 kts 152°
2026-04-22 15:52 59.35768 -151.92055 214 ft 122 kts 201°
2026-04-22 15:52 59.35109 -151.92612 37 ft 61 kts 196°
2026-04-22 15:52 59.35037 -151.92708 40 ft 10 kts 238°
2026-04-22 15:52 59.35010 -151.92745 41 ft 5 kts 57°
2026-04-22 15:53 59.35093 -151.92627 37 ft 26 kts 31°
2026-04-22 15:53 59.35242 -151.92457 33 ft 4 kts 25°
2026-04-22 15:53 59.35242 -151.92456 33 ft 1 kts 25°
2026-04-22 15:57 59.35041 -151.92644 78 ft 0 kts 25°
2026-04-22 15:57 59.34519 -151.93239 772 ft 0 kts 25°
2026-04-22 15:58 59.34561 -151.93201 723 ft 237 kts 28°